FW8194 Weather Reports


time (UTC)temp
F
wind
direction
speed
knots
gust
knots
rain 1hr
in
rain 24hr
in
rain mn
in
humidity
%
barometer
mb
20260505031810 48 93 5.2 13.9 0.00 0.00 0.00 95 1009.8
20260505031313 48 52 4.3 13.9 0.00 0.00 0.00 95 1009.9
20260505030810 48 31 4.3 12.2 0.00 0.00 0.00 95 1009.8
20260505030310 49 40 4.3 12.2 0.00 0.00 0.00 95 1010.0
20260505025810 49 24 4.3 12.2 0.00 0.00 0.00 95 1009.8
20260505025310 49 47 5.2 13.9 0.00 0.00 0.00 94 1009.9
20260505024810 49 39 4.3 14.8 0.00 0.00 0.00 94 1009.9
20260505024310 49 59 6.1 13.9 0.00 0.00 0.00 94 1009.7
20260505023810 49 20 6.1 15.6 0.00 0.00 0.00 94 1009.6
20260505023309 49 55 5.2 18.2 0.00 0.00 0.00 94 1009.8
20260505022810 49 44 4.3 13.0 0.00 0.00 0.00 94 1009.7
20260505022209 49 27 6.1 15.6 0.00 0.00 0.00 94 1009.8
20260505021709 49 27 7.0 16.5 0.00 0.00 0.00 94 1009.8
20260505021210 49 34 6.1 14.8 0.00 0.00 0.00 94 1009.7
20260505020709 49 52 7.0 14.8 0.00 0.00 0.00 94 1009.7
20260505020210 49 37 5.2 14.8 0.00 0.00 0.00 93 1009.6
20260505015709 49 28 7.0 15.6 0.00 0.00 0.00 93 1007.9
20260505015210 49 52 6.1 13.9 0.00 0.00 0.00 93 1009.6
20260505014709 49 44 5.2 17.4 0.00 0.00 0.00 93 1009.6
20260505014209 49 60 6.1 20.0 0.00 0.00 0.00 93 1009.6
20260505013709 49 47 6.1 17.4 0.00 0.00 0.00 93 1009.4
20260505013209 49 53 6.1 20.9 0.00 0.00 0.00 92 1009.3
20260505012709 49 29 7.0 20.9 0.00 0.00 0.00 92 1009.2
20260505012209 49 22 7.8 24.3 0.00 0.00 0.00 92 1009.1
20260505011709 49 55 7.8 19.1 0.00 0.00 0.00 92 1008.9
20260505011209 49 20 7.8 24.3 0.00 0.00 0.00 92 1009.0
20260505010709 49 43 8.7 23.5 0.00 0.00 0.00 91 1008.7
20260505010209 49 50 7.8 25.2 0.00 0.00 0.00 91 1008.8
20260505005709 49 54 7.0 19.1 0.00 0.00 0.00 91 1008.6
20260505005209 49 31 7.8 20.0 0.00 0.00 0.00 91 1007.0
20260505004709 49 205 8.7 25.2 0.00 0.00 0.00 91 1008.5
20260505004209 49 80 7.8 24.3 0.00 0.00 0.00 91 1008.6
20260505003709 49 39 7.8 21.7 0.00 0.00 0.00 91 1008.4
20260505003209 49 105 0.0 21.7 0.00 0.00 0.00 90 1008.3
20260505002709 49 245 0.0 20.9 0.00 0.00 0.00 90 1008.2
20260505002209 49 42 7.8 24.3 0.00 0.00 0.00 90 1008.2
20260505001709 49 232 0.0 25.2 0.00 0.00 0.00 90 1008.1
20260505001109 49 256 10.4 22.6 0.00 0.00 0.00 89 1008.1
20260505000609 50 111 7.8 23.5 0.00 0.00 0.00 89 1008.0
20260505000109 50 30 0.0 24.3 0.00 0.00 0.00 89 1008.0
20260504235609 50 36 0.0 24.3 0.00 0.00 0.00 89 1007.9
20260504235109 50 59 7.8 24.3 0.00 0.00 0.00 88 1007.8
20260504234609 50 118 9.6 23.5 0.00 0.00 0.00 88 1007.5
20260504234109 50 53 7.8 23.5 0.00 0.00 0.00 88 1007.6
20260504233609 50 136 0.0 27.8 0.00 0.00 0.00 87 1007.6
20260504233109 50 255 0.0 26.1 0.00 0.00 0.00 87 1007.6
20260504232609 50 205 9.6 24.3 0.00 0.00 0.00 86 1007.9
20260504232109 50 130 0.0 23.5 0.00 0.00 0.00 86 1007.4
20260504231609 51 193 0.0 22.6 0.00 0.00 0.00 85 1007.8
20260504231109 51 313 8.7 25.2 0.00 0.00 0.00 85 1007.7
20260504230609 51 279 0.0 20.9 0.00 0.00 0.00 85 1007.8
20260504230109 51 217 9.6 23.5 0.00 0.00 0.00 85 1007.8
20260504225609 51 241 9.6 23.5 0.00 0.00 0.00 85 1007.7
20260504225109 51 36 8.7 22.6 0.00 0.00 0.00 84 1007.7
20260504224609 51 2 8.7 23.5 0.00 0.00 0.00 84 1007.9
20260504224109 51 106 7.8 19.1 0.00 0.00 0.00 85 1007.9
20260504223609 51 191 0.0 21.7 0.00 0.00 0.00 84 1007.6
20260504223109 51 327 7.8 21.7 0.00 0.00 0.00 83 1007.8
20260504222609 52 47 7.0 22.6 0.00 0.00 0.00 83 1007.8
20260504222109 52 60 0.0 24.3 0.00 0.00 0.00 83 1007.8
20260504221609 52 22 7.0 23.5 0.00 0.00 0.00 83 1007.9
20260504221109 52 22 0.0 22.6 0.00 0.00 0.00 83 1008.0
20260504220609 52 9 7.8 20.9 0.00 0.00 0.00 82 1008.0
20260504220108 52 46 7.8 21.7 0.00 0.00 0.00 82 1007.9
20260504215609 52 53 7.8 20.0 0.00 0.00 0.00 82 1007.9
20260504215109 52 36 7.0 20.0 0.00 0.00 0.00 82 1008.0
20260504214609 52 33 7.8 23.5 0.00 0.00 0.00 81 1007.7
20260504214109 53 42 7.8 20.9 0.00 0.00 0.00 81 1007.8
20260504213609 53 38 7.0 22.6 0.00 0.00 0.00 81 1007.8
20260504213109 52 15 6.1 21.7 0.00 0.00 0.00 81 1007.9
20260504212608 53 21 8.7 20.0 0.00 0.00 0.00 81 1008.1
20260504212108 53 318 8.7 23.5 0.00 0.00 0.00 81 1008.0
20260504211609 53 11 7.0 26.1 0.00 0.00 0.00 81 1008.1
20260504211109 53 47 0.0 21.7 0.00 0.00 0.00 81 1008.0
20260504210608 53 242 7.8 21.7 0.00 0.00 0.00 81 1008.0
20260504210108 53 35 7.0 16.5 0.00 0.00 0.00 80 1008.0
20260504205608 53 23 6.1 20.9 0.00 0.00 0.00 80 1008.1
20260504205108 54 41 7.0 14.8 0.00 0.00 0.00 80 1008.1
20260504204609 54 48 5.2 14.8 0.00 0.00 0.00 79 1008.2
20260504204109 54 34 5.2 16.5 0.00 0.00 0.00 78 1008.1
20260504203608 54 41 6.1 16.5 0.00 0.00 0.00 78 1008.1
20260504203109 54 87 6.1 15.6 0.00 0.00 0.00 78 1008.2
20260504202608 55 18 6.1 14.8 0.00 0.00 0.00 77 1008.2
20260504202108 55 45 6.1 15.6 0.00 0.00 0.00 78 1008.1
20260504201609 54 51 6.1 14.8 0.00 0.00 0.00 78 1008.1
20260504201108 54 123 7.8 17.4 0.00 0.00 0.00 78 1008.2
20260504200608 55 56 5.2 14.8 0.00 0.00 0.00 78 1008.2
20260504200108 55 58 6.1 14.8 0.00 0.00 0.00 78 1008.3
20260504195608 55 79 6.1 16.5 0.00 0.00 0.00 79 1008.2
20260504195108 55 29 6.1 18.2 0.00 0.00 0.00 78 1008.1
20260504194608 55 50 7.0 16.5 0.00 0.00 0.00 79 1008.3
20260504194108 55 30 6.1 20.0 0.00 0.00 0.00 78 1006.7
20260504193608 55 49 5.2 11.3 0.00 0.00 0.00 78 1008.4
20260504193109 55 64 6.1 17.4 0.00 0.00 0.00 78 1008.3
20260504192609 55 25 6.1 17.4 0.00 0.00 0.00 77 1008.3
20260504192108 55 51 5.2 15.6 0.00 0.00 0.00 77 1008.5
20260504191608 55 49 5.2 16.5 0.00 0.00 0.00 77 1008.6
20260504191108 55 62 5.2 15.6 0.00 0.00 0.00 78 1008.6
20260504190608 55 55 6.1 13.0 0.00 0.00 0.00 77 1008.6
20260504190108 55 67 7.0 19.1 0.00 0.00 0.00 78 1008.6
20260504185608 55 61 7.0 18.2 0.00 0.00 0.00 78 1008.4
20260504185109 55 56 6.1 15.6 0.00 0.00 0.00 78 1008.6
20260504184608 55 54 6.1 14.8 0.00 0.00 0.00 79 1008.6
20260504184108 55 55 6.1 14.8 0.00 0.00 0.00 79 1008.5
20260504183608 55 52 7.0 14.8 0.00 0.00 0.00 80 1008.8
20260504183116 55 72 5.2 18.2 0.00 0.00 0.00 80 1008.6
20260504182608 55 47 5.2 13.9 0.00 0.00 0.00 80 1008.9
20260504182108 55 45 7.8 16.5 0.00 0.00 0.00 79 1008.8
20260504181608 55 39 6.1 15.6 0.00 0.00 0.00 80 1008.8
20260504181108 55 46 7.0 16.5 0.00 0.00 0.00 81 1008.9
20260504180608 55 60 6.1 14.8 0.00 0.00 0.00 82 1008.7
20260504180108 55 40 7.0 16.5 0.00 0.00 0.00 81 1008.8
20260504175608 55 56 7.0 18.2 0.00 0.00 0.00 82 1008.8
20260504175108 55 46 7.0 14.8 0.00 0.00 0.00 81 1009.0
20260504174608 55 32 7.0 17.4 0.00 0.00 0.00 81 1009.0
20260504174108 55 51 6.1 16.5 0.00 0.00 0.00 81 1009.0
20260504173608 55 64 6.1 14.8 0.00 0.00 0.00 82 1009.1
20260504173108 55 59 7.0 14.8 0.00 0.00 0.00 82 1009.0
20260504172611 55 59 7.0 16.5 0.00 0.00 0.00 81 1009.3
20260504172108 55 12 6.1 14.8 0.00 0.00 0.00 81 1009.2
20260504171608 55 39 5.2 19.1 0.00 0.00 0.00 81 1009.1
20260504171108 54 14 7.8 22.6 0.00 0.00 0.00 82 1009.3
20260504170608 55 310 7.0 20.9 0.00 0.00 0.00 81 1009.3
20260504170108 54 256 9.6 21.7 0.00 0.00 0.00 82 1009.3
20260504160107 54 31 7.0 19.1 0.00 0.00 0.00 80 1009.6
20260504151107 54 262 10.4 23.5 0.00 0.00 0.00 79 1008.4
20260504150607 54 285 8.7 20.9 0.00 0.00 0.00 81 1009.9
20260504150107 54 283 0.0 22.6 0.00 0.00 0.00 81 1009.9
20260504141107 53 263 10.4 20.9 0.00 0.00 0.00 80 1010.2
20260504140607 53 268 10.4 21.7 0.00 0.00 0.00 80 1010.0
20260504140107 53 267 9.6 23.5 0.00 0.00 0.00 81 1010.2
20260504130607 52 259 13.9 24.3 0.00 0.00 0.00 80 1010.5
20260504130107 52 260 14.8 22.6 0.00 0.00 0.00 80 1010.6
20260504120107 49 257 10.4 20.0 0.00 0.00 0.00 86 1010.7
20260504110507 49 257 12.2 19.1 0.00 0.00 0.00 86 1010.5
20260504100506 48 263 9.6 18.2 0.00 0.00 0.00 88 1010.1
20260504082006 47 263 9.6 15.6 0.00 0.00 0.00 89 1009.6
20260504081506 48 264 9.6 15.6 0.00 0.00 0.00 88 1007.9
20260504081006 48 260 11.3 17.4 0.00 0.00 0.00 88 1009.5
20260504080506 48 260 10.4 15.6 0.00 0.00 0.00 87 1009.6
20260504050509 47 253 9.6 13.9 0.00 0.00 0.00 90 1009.0
20260504050008 47 256 9.6 13.9 0.00 0.00 0.00 89 1009.0
20260504045514 47 257 7.8 13.0 0.00 0.00 0.00 89 1009.0
20260504045008 47 260 8.7 13.0 0.00 0.00 0.00 89 1009.1
20260504044507 47 255 7.8 14.8 0.00 0.00 0.00 89 1009.1
20260504044008 47 274 6.1 13.0 0.00 0.00 0.00 88 1009.1
20260504043508 47 256 7.8 15.6 0.00 0.00 0.00 87 1009.1
20260504043007 47 264 8.7 16.5 0.00 0.00 0.00 87 1009.1
20260504042514 47 255 9.6 15.6 0.00 0.00 0.00 87 1009.1
20260504042014 47 264 12.2 14.8 0.00 0.00 0.00 88 1007.5
20260504041508 47 266 10.4 13.9 0.00 0.00 0.00 88 1009.1
20260504041009 47 268 9.6 13.0 0.00 0.00 0.00 88 1009.2
20260504040510 47 260 9.6 13.0 0.00 0.00 0.00 89 1009.2
20260504040005 47 260 8.7 12.2 0.00 0.00 0.00 89 1009.1
20260504035507 46 258 7.8 11.3 0.00 0.00 0.00 89 1009.1
20260504035014 46 246 7.0 11.3 0.00 0.00 0.00 90 1009.1
20260504034506 46 259 7.0 11.3 0.00 0.00 0.00 89 1009.1
20260504034005 46 258 7.0 12.2 0.00 0.00 0.00 89 1009.0
20260504033507 46 271 6.1 13.0 0.00 0.00 0.00 89 1009.0
20260504033006 47 270 6.1 14.8 0.00 0.00 0.00 89 1008.9
20260504032505 47 248 7.0 15.6 0.00 0.00 0.00 89 1008.9
20260504032005 47 242 8.7 17.4 0.00 0.00 0.00 88 1008.8